Location: Proctor
(47.8934°N, 114.3048°W)
Time: 10:37:41
(UTC+00:00)

AO-91 - Pass Details

Date: 04 July 2022
Orbit: 450 x 797 km, 97.7° (Epoch: 10 August)

Event Time Altitude Azimuth Distance (km) Brightness Sun altitude
Rises 06:40:12 0° 11° (N) 2,508 ? -17.9°
Reaches altitude 10° 06:42:16 10° 9° (N) 1,608 ? -18.0°
Maximum altitude 06:45:39 71° 286° (WNW) 484 ? -18.1°
Enters shadow 06:46:35 44° 216° (SW) 639 ? -18.2°
